Hourly Data Report for October 27, 2013

All times are specified in Local Standard Time (LST). Add 1 hour to adjust for Daylight Saving Time where and when it is observed.

PANGNIRTUNG
NUNAVUT

66°08'36.300" N
65°42'40.500" W
22.60 m
2403049
71826
WXP

Download Data

Hourly Data (October 2013)
Hourly Data Report for October 27, 2013
Temp Definition
°C
Dew Point Temp Definition
°C
Rel Hum Definition
%
Wind Dir Definition
10's deg

Wind Spd Definition
km/h
Visibility Definition
km
Stn Press Definition
kPa
Hmdx Definition


Wind Chill Definition


Weather Definition


TIME
00:00 -7.5 -9.8 84 33 6   99.82   -11 LegendNANA
01:00 -7.5 -9.6 85 30 4   99.85   -10 LegendNANA
02:00 -7.7 -10.1 83 19 2   99.86   -9 LegendNANA
03:00 -7.5 -9.6 85 9 6   99.88   -11 LegendNANA
04:00 -7.5 -9.7 84 2 6   99.91   -11 LegendNANA
05:00 -7.2 -9.4 84 9 9   99.92   -12 LegendNANA
06:00 -7.0 -9.4 83 6 7   99.94   -11 LegendNANA
07:00 -6.7 -9.2 82 15 9   99.98   -11 LegendNANA
08:00 -6.7 -9.6 80 13 15   100.00   -13 LegendNANA
09:00 -6.3 -9.3 79 14 13   100.02   -12 LegendNANA
10:00 -6.1 -8.8 81 7 7   100.02   -9 LegendNANA
11:00 -5.8 -8.6 81 4 9   100.03   -10 LegendNANA
12:00 -5.4 -9.0 76 11 4   100.05   -7 LegendNANA
13:00 -5.5 -8.7 78 10 6   100.06   -8 LegendNANA
14:00 -5.8 -8.7 80 12 7   100.07   -9 LegendNANA
15:00 -6.3 -8.9 82 14 11   100.06   -11 LegendNANA
16:00 -6.9 -9.4 82 13 17   100.05   -13 LegendNANA
17:00 -6.9 -10.0 79 10 13   100.05   -12 LegendNANA
18:00 -7.5 -10.6 78 11 11   100.06   -13 LegendNANA
19:00 -6.3 -9.6 77 10 7   100.06   -10 LegendNANA
20:00 -6.2 -9.9 75 11 7   100.04   -10 LegendNANA
21:00 -6.1 -10.0 74 9 7   100.01   -9 LegendNANA
22:00 -6.3 -9.9 76 9 6   99.96   -9 LegendNANA
23:00 -6.3 -10.6 72 12 6   99.93   -9 LegendNANA

Notes on Data Quality.

Legend

  • E = Estimated
  • M = Missing
  • NA = Not Available
  • ‡ = Partner data that is not subject to review by the National Climate Archives
Date modified: